Temp
15 16 17 18 17 13 14 17 19 20 22 22 24 25 25 25 25 23 21 22 22 20 20 20 20 20 20 20 20 20 20 20 19 19 20 20 20 20 19 19 19 19 19 19 19 18 18 19 19
15 16 17 15 15 13 16 17 19 20 22 24 24 25 25 25 22 19 20 21 22 19 20 20 20 20 20 20 20 20 20 20 19 19 20 20 19 19 19 19 19 19 19 19 18 19 19 19 19
14 15 15 14 13 17 16 17 21 21 20 23 25 24 24 23 21 21 23 21 21 19 19 20 20 20 20 20 20 20 20 19 20 20 20 20 20 19 19 19 19 19 19 19 19 19 19 18 18
14 14 13 13 14 16 18 18 20 22 22 21 24 24 24 23 23 24 22 21 21 20 19 20 20 20 20 20 20 20 20 20 20 20 20 20 19 19 19 19 19 19 19 19 19 19 19 19 18
14 13 12 11 14 15 17 19 20 20 21 22 22 24 23 24 24 23 21 20 20 19 20 20 20 20 20 20 20 20 20 20 20 20 19 19 19 19 19 19 19 19 19 19 19 19 19 19 19
13 12 13 14 14 14 15 18 19 19 20 21 23 23 22 22 21 20 20 20 20 19 20 20 20 19 20 20 20 20 20 19 19 19 19 19 19 19 19 18 19 19 19 19 18 19 19 19 19
12 13 14 13 14 14 16 17 18 19 19 20 22 22 21 21 20 20 20 20 19 19 19 20 20 19 20 20 19 19 19 19 19 19 19 19 19 19 19 18 18 18 18 18 18 18 19 19 19
11 12 14 14 14 14 16 18 19 18 19 21 23 21 19 21 20 19 19 19 19 19 19 19 19 19 19 19 19 19 19 19 19 19 19 19 19 19 18 18 18 18 18 17 18 18 18 18 18
12 11 12 15 15 14 16 16 18 19 20 22 22 23 22 23 20 19 18 18 19 18 18 18 18 19 19 19 19 19 19 19 19 19 19 19 19 18 18 18 18 18 17 17 18 18 18 18 18
9 10 13 16 15 15 16 16 17 18 18 20 21 22 22 19 19 18 19 19 18 18 18 18 19 19 19 19 19 19 19 18 18 18 18 18 18 17 17 17 17 17 16 18 18 18 18 18 17
9 9 7 9 8 8 11 12 14 16 16 18 19 19 20 20 19 19 19 19 18 18 18 19 19 19 18 18 18 18 18 18 18 18 18 18 17 17 17 17 17 16 16 17 17 17 17 17 17
5 8 6 6 7 6 7 8 11 13 15 14 15 16 21 20 18 18 19 18 18 17 18 18 18 18 18 18 18 18 18 18 17 17 18 17 17 17 16 16 16 15 16 16 16 17 16 16 16
5 6 9 6 8 7 7 7 9 11 12 13 15 16 18 20 19 19 19 18 18 17 17 18 18 18 18 18 17 18 17 17 17 17 17 16 16 16 15 15 15 15 16 16 16 16 16 16 16
5 6 7 8 9 8 7 8 9 12 13 13 15 14 15 18 17 17 17 17 18 18 17 18 18 18 17 18 17 17 17 17 17 17 17 16 16 16 15 15 15 15 16 16 16 16 15 15 15
6 5 6 7 8 9 9 8 9 12 12 13 14 14 14 15 18 17 17 17 18 18 17 17 17 17 18 17 16 16 16 16 16 16 16 15 15 15 15 15 15 15 15 15 15 15 15 14 14
5 5 1 7 8 9 8 8 12 12 12 13 14 13 13 14 15 18 18 18 17 17 17 17 17 18 17 17 16 16 17 16 16 16 16 16 16 16 15 15 15 15 15 15 15 14 14 13 13
-1 0 3 6 9 9 9 9 11 12 11 13 13 13 14 13 14 17 17 20 20 20 19 17 17 17 17 17 16 16 17 16 16 16 16 16 16 16 15 15 15 15 15 14 14 13 14 12 12
-1 -3 2 4 7 8 7 8 10 13 13 13 13 13 14 13 14 17 18 18 21 21 20 18 17 17 17 17 16 16 16 16 16 16 16 16 16 16 15 15 15 15 14 14 13 13 12 12 12
3 4 0 6 7 5 7 8 8 11 12 12 12 12 10 10 10 12 17 18 20 20 19 17 17 17 17 16 16 16 16 16 16 16 16 16 16 15 15 15 14 14 15 14 13 12 13 11 11
3 -1 2 5 7 4 6 7 8 10 9 6 6 7 7 8 8 8 9 12 17 19 20 17 16 16 16 16 16 16 16 15 16 16 16 16 16 15 15 15 14 14 14 13 12 13 10 9 11
-1 -1 3 3 5 6 5 5 8 8 6 5 4 5 6 6 6 6 7 6 9 15 20 18 16 16 16 16 16 16 15 15 15 15 15 16 15 15 15 15 15 14 14 13 13 13 12 10 12
-2 4 4 5 3 5 5 7 4 5 5 4 2 3 3 4 5 5 6 5 5 7 14 20 18 16 16 15 15 15 15 15 15 15 15 15 15 15 15 15 15 14 13 14 13 13 13 12 12
-1 3 3 4 4 5 5 5 3 3 3 3 2 2 3 3 3 4 4 4 4 5 10 18 19 16 15 15 15 15 14 15 14 14 14 14 14 15 14 14 15 14 13 13 13 13 13 13 12
-1 -1 3 5 3 3 4 4 0 2 2 1 1 2 2 2 2 3 3 3 3 4 7 11 17 17 16 15 15 14 14 14 14 14 13 13 13 13 14 14 15 13 13 13 13 13 13 14 13
-0 -1 2 4 3 6 5 1 1 1 0 1 1 1 2 2 1 2 2 2 2 3 4 6 12 17 15 15 14 14 14 14 14 14 13 13 13 13 14 14 13 13 13 13 13 12 13 13 14
-1 -3 -2 2 3 6 3 1 0 0 -1 0 1 1 2 1 1 1 1 1 1 2 2 3 7 14 14 15 14 14 14 14 14 14 13 13 13 13 14 13 13 12 12 12 12 12 13 13 14
-1 0 -1 -1 -0 4 -1 0 0 0 0 -0 -0 -0 -1 -0 0 -0 0 0 0 1 1 2 4 10 14 14 14 14 14 14 13 13 13 13 12 12 12 13 12 12 11 12 12 12 12 13 14
-0 -2 -1 -3 1 -1 -3 -2 -2 -3 -2 -3 -2 -2 -1 -1 -1 -1 -1 -1 -1 -0 -0 1 2 5 9 12 13 13 13 13 13 13 13 13 13 12 12 12 12 11 11 11 12 11 12 12 13
-0 -3 -4 -4 -4 -2 -0 0 -6 -6 -7 -6 -5 -4 -3 -2 -1 -1 -2 -2 -1 -1 -1 1 0 3 6 8 9 13 13 13 13 13 13 12 12 12 12 12 12 11 11 11 11 11 12 12 12
-7 -4 -9 -4 -2 -5 -2 -2 -6 -7 -8 -8 -6 -5 -4 -4 -5 -3 -3 -2 -2 -2 -2 -1 -1 1 2 4 7 9 13 13 13 13 13 12 12 12 12 12 11 11 11 11 11 10 11 11 11
Height
792 792 792 792 809 815 812 798 779 779 777 762 757 759 765 759 770 791 758 764 768 773 779 785 789 793 797 801 804 807 809 811 813 815 817 819 822 824 827 828 830 833 834 836 838 839 840 842 844
791 792 792 797 807 816 797 785 779 771 760 754 756 756 761 765 755 759 762 764 768 774 780 784 789 793 797 800 803 807 810 813 815 817 819 821 824 826 828 830 833 835 836 838 840 842 843 845 847
790 792 798 803 801 780 789 776 765 761 758 758 756 752 755 759 754 752 757 761 768 776 781 785 789 794 797 800 803 807 811 814 816 819 821 823 825 828 830 833 835 837 839 841 842 845 847 848 849
790 793 795 797 782 774 769 766 760 760 755 757 754 761 751 747 745 751 754 761 767 774 781 786 789 793 797 801 804 807 811 814 817 820 822 824 827 831 833 835 837 840 842 843 845 847 849 851 852
791 789 796 796 775 771 762 758 758 761 756 754 754 759 757 746 745 749 755 760 764 772 780 787 790 793 797 801 804 808 812 815 818 821 824 825 829 832 834 837 839 842 844 846 848 850 852 853 854
788 784 782 767 774 772 765 757 758 758 756 754 753 755 756 749 746 750 754 760 765 770 778 786 791 794 797 801 804 808 812 815 818 822 825 827 830 834 837 839 841 844 847 849 851 853 854 855 857
785 777 763 768 766 770 763 756 756 755 757 756 749 758 754 751 751 748 753 759 767 772 779 785 791 794 797 801 805 808 812 815 819 823 826 829 831 835 838 841 844 847 850 851 853 855 857 858 860
787 777 763 763 768 770 759 754 750 755 753 746 745 757 762 749 752 755 756 758 767 773 779 783 789 794 797 801 805 808 812 816 820 823 827 831 833 836 840 843 846 848 851 853 855 857 859 861 862
786 776 760 755 764 765 755 757 752 748 752 746 743 745 743 744 752 756 759 763 768 775 779 783 788 793 797 801 805 809 813 817 821 824 827 831 835 839 841 844 847 850 852 855 857 859 860 862 864
790 774 760 760 762 760 756 755 754 752 751 743 744 742 742 747 747 752 758 760 766 772 778 781 787 791 797 801 805 808 812 816 820 824 827 831 835 839 843 846 849 852 854 856 858 861 863 864 866
787 780 785 778 779 781 769 763 758 751 754 749 746 747 746 750 743 747 752 756 761 769 776 779 785 790 795 799 804 807 812 816 819 824 826 830 834 840 844 847 850 853 854 857 860 862 864 866 867
799 786 794 791 787 787 785 777 765 756 749 752 750 752 739 741 746 745 748 757 763 769 772 777 783 788 794 798 802 805 810 814 818 823 827 830 834 839 844 847 850 853 856 858 861 864 865 868 869
798 789 784 792 787 787 786 777 772 760 751 751 745 739 738 735 739 738 745 751 757 766 773 776 781 786 792 796 801 805 808 813 817 822 827 830 833 839 843 847 850 854 857 859 862 865 867 869 871
794 789 787 783 779 783 783 772 772 751 749 751 747 743 737 735 735 739 746 749 754 763 770 774 779 784 790 794 799 803 807 811 816 820 824 830 833 838 842 847 851 854 858 860 863 865 868 870 872
793 793 786 781 776 771 771 770 759 753 751 753 750 746 745 742 737 735 740 746 750 757 765 770 776 782 788 793 798 802 805 810 814 819 824 829 833 838 841 846 850 854 858 861 864 867 869 871 874
797 793 808 779 772 767 769 769 751 749 751 748 755 747 744 741 742 737 739 744 750 754 762 767 773 780 786 790 795 799 803 808 813 818 823 828 834 838 841 845 850 854 858 861 865 867 870 873 875
824 821 800 785 768 765 766 763 755 750 753 746 756 754 750 746 743 743 741 744 747 754 758 767 771 777 782 788 793 797 802 806 811 815 821 827 833 837 839 844 848 852 857 861 864 868 870 874 877
830 836 804 793 773 766 768 762 753 742 748 744 751 755 753 752 749 744 743 744 747 752 757 763 769 774 780 785 790 796 802 806 810 813 819 825 830 834 838 843 847 851 855 860 864 867 872 874 877
801 798 816 782 773 776 769 763 762 756 752 751 745 757 760 759 758 749 746 746 749 752 756 761 767 772 776 781 785 791 796 801 807 811 816 823 828 832 836 841 846 849 852 858 862 866 869 875 878
802 824 804 783 771 781 773 769 767 761 766 773 769 771 769 765 760 757 754 752 749 750 753 759 764 769 772 777 778 783 790 795 801 806 813 819 824 829 833 836 842 846 850 856 859 863 868 874 875
820 819 798 795 782 773 777 778 761 769 776 782 783 785 779 777 773 768 764 760 753 752 752 754 760 766 771 775 779 783 789 795 801 805 809 814 819 825 829 833 837 843 846 850 856 859 862 868 873
832 797 795 786 793 780 777 768 789 785 784 792 800 793 788 785 782 776 771 765 759 754 753 752 756 763 769 773 775 776 779 785 794 798 804 810 815 821 827 831 834 839 843 847 851 856 859 861 865
822 800 796 787 784 779 776 781 809 798 797 801 806 799 794 794 788 780 778 774 764 756 752 753 753 758 765 770 772 774 778 779 787 795 800 805 811 816 822 827 830 835 839 844 848 852 856 858 860
813 812 796 784 789 793 784 787 827 815 820 813 806 798 797 797 787 784 783 779 767 760 754 752 755 754 760 765 768 770 773 777 784 790 796 800 805 811 817 822 826 830 835 838 843 848 852 855 858
814 819 807 793 800 776 784 813 829 827 823 824 818 811 808 802 798 789 784 780 770 763 760 755 754 754 756 762 765 768 771 773 778 784 788 794 798 804 809 814 819 823 828 833 838 843 847 851 854
830 839 844 827 809 783 799 825 836 831 831 822 816 812 805 801 797 790 788 786 775 769 765 760 756 754 756 759 763 766 768 770 773 776 785 788 790 794 799 806 813 818 823 827 833 837 842 846 850
830 831 834 838 832 804 847 837 835 828 825 825 823 816 811 807 799 792 790 786 779 774 770 766 759 753 755 757 759 763 765 765 768 772 775 784 788 792 795 801 807 813 817 822 827 831 835 840 845
829 834 843 851 837 857 860 856 851 847 836 831 825 826 819 807 803 797 793 788 779 779 774 769 765 757 755 756 756 758 758 759 763 767 768 772 779 785 790 796 801 807 812 817 822 826 830 835 839
835 849 855 853 859 864 849 832 850 850 851 846 833 824 815 812 809 801 797 792 788 784 777 767 767 756 755 755 753 754 754 757 759 760 762 762 766 773 781 789 794 799 806 811 816 820 823 828 832
865 861 883 867 856 876 856 848 842 843 844 841 832 822 818 816 811 805 804 799 790 783 781 776 768 757 757 755 753 751 750 752 753 755 757 759 760 765 768 779 786 791 798 804 809 813 815 820 824
Wind_Speed
5 4 2 1 2 2 5 7 3 5 3 6 3 3 6 5 7 6 10 25 28 44 40 35 33 31 29 27 26 25 24 24 24 24 24 23 22 23 24 25 26 26 26 25 25 27 28 29 28
4 1 2 1 4 4 6 6 11 11 9 1 3 3 3 2 2 9 18 19 32 40 40 36 34 33 30 28 27 26 25 24 24 24 23 22 22 24 24 24 25 25 25 26 27 29 30 28 27
6 2 3 3 5 16 5 9 16 8 10 3 3 2 4 7 1 17 8 27 38 36 38 35 35 33 31 30 29 26 26 24 24 24 23 22 23 24 24 24 26 25 24 27 30 29 27 25 23
2 1 2 5 16 7 8 10 8 12 5 6 4 4 3 5 25 18 28 35 42 40 39 35 34 35 31 31 29 27 26 26 26 24 23 23 24 23 24 26 26 25 26 29 30 27 24 23 23
4 2 4 6 15 3 7 4 5 9 7 5 8 6 2 2 15 27 38 41 41 41 41 36 33 35 32 31 31 29 26 26 26 24 23 24 24 25 26 27 26 26 28 29 27 24 22 21 22
4 3 7 21 10 10 6 12 4 5 3 5 3 7 6 7 31 37 40 40 39 41 42 37 32 33 32 32 31 31 27 27 26 25 24 24 25 25 27 27 27 27 28 28 25 25 23 25 25
5 6 18 1 9 8 12 7 11 10 10 6 1 8 2 2 21 40 40 38 36 40 42 37 33 33 33 31 30 29 27 26 25 25 24 25 26 27 27 27 27 27 28 26 25 25 25 25 23
3 5 18 16 9 5 8 13 13 11 12 4 3 6 4 5 20 29 34 38 36 39 40 39 35 33 33 32 29 28 27 26 25 24 24 24 25 27 28 28 27 27 26 24 25 25 25 26 24
3 8 18 24 15 4 3 5 6 3 11 6 7 6 5 26 27 28 28 29 30 32 37 37 36 34 33 32 29 27 26 26 25 25 26 27 27 27 30 29 27 26 25 25 25 25 24 24 24
3 9 14 9 7 8 20 9 3 3 4 13 2 9 11 23 32 26 22 25 29 30 33 38 38 36 34 32 30 29 28 28 28 29 30 31 31 30 31 29 27 27 26 26 25 24 24 23 24
3 4 10 6 13 13 10 8 10 2 5 2 5 11 9 13 23 28 29 32 33 33 30 40 40 37 35 34 32 31 31 31 31 33 34 34 33 33 32 29 27 26 27 28 26 26 24 24 25
4 6 5 8 9 9 11 16 8 6 4 6 6 7 21 18 13 18 25 28 31 31 35 39 40 39 35 32 33 31 34 34 34 35 35 36 37 35 33 31 29 28 28 28 26 25 24 23 23
3 7 4 6 11 11 10 14 14 14 16 8 10 12 12 20 18 26 30 31 33 31 30 39 40 38 37 33 31 31 36 36 37 36 36 37 38 36 34 32 32 30 29 28 28 27 26 26 25
5 12 9 9 11 6 11 17 6 3 4 8 9 10 7 10 14 15 21 25 31 31 32 40 41 40 36 33 31 32 35 38 38 38 38 38 38 37 35 34 32 31 30 30 30 29 28 27 25
8 7 7 6 9 9 5 13 11 8 15 9 8 7 8 7 9 19 25 28 33 34 37 40 39 38 36 32 31 32 34 37 39 39 38 38 37 36 37 36 33 31 30 30 29 28 27 26 23
4 2 3 5 5 6 10 9 6 8 8 16 1 8 9 9 8 14 26 25 28 32 34 37 38 41 36 35 35 34 38 36 39 38 38 37 36 36 41 35 34 32 30 30 29 28 26 25 22
6 3 4 6 3 2 10 3 9 4 7 16 5 5 7 9 10 13 22 31 33 32 34 32 36 38 41 37 34 36 39 36 40 39 39 38 38 37 39 36 35 33 31 30 29 28 27 26 25
5 3 4 5 5 7 7 9 7 6 3 9 2 3 5 7 9 14 19 26 30 31 32 36 36 37 38 38 34 37 37 35 38 39 40 41 41 41 38 35 35 34 32 31 30 30 28 29 29
7 5 3 4 6 3 2 3 5 3 2 5 11 3 8 9 13 25 12 25 31 30 28 30 32 34 37 36 35 36 35 38 36 39 40 40 40 42 40 37 36 35 33 34 34 34 34 33 34
1 1 4 6 2 3 3 7 2 5 8 15 15 15 13 13 18 22 27 13 25 30 31 30 31 33 37 36 39 41 39 39 40 41 40 42 43 43 43 40 39 36 36 36 37 39 36 30 30
2 2 3 4 5 2 3 5 3 6 15 17 20 15 14 15 15 17 23 25 19 10 30 30 32 35 35 34 30 27 32 26 28 36 41 44 45 45 43 43 41 38 39 40 41 41 38 30 24
2 3 8 7 3 2 2 4 8 13 10 19 15 16 15 16 15 14 20 26 25 22 16 31 30 33 37 35 31 34 31 33 32 40 41 43 46 46 43 43 42 40 42 42 45 44 42 40 37
6 7 7 6 3 1 2 4 7 11 14 18 15 15 15 14 14 16 19 25 25 26 13 25 31 33 33 36 34 37 28 34 33 34 39 42 44 45 44 44 42 43 44 45 46 48 44 45 36
4 3 2 2 2 3 7 4 6 6 8 12 14 17 16 15 17 16 22 24 25 29 22 8 25 33 33 33 37 38 34 29 26 31 34 38 42 43 45 45 45 46 45 48 48 49 48 47 38
8 5 3 4 4 3 5 9 2 5 8 6 13 14 14 14 13 15 16 24 27 29 30 23 11 28 35 33 36 36 35 37 35 35 39 36 37 41 48 48 48 49 50 50 49 51 50 48 41
4 4 4 3 2 3 8 4 2 3 4 6 10 12 14 15 14 15 18 22 25 26 28 29 20 17 28 35 31 37 36 35 37 40 32 35 39 46 49 51 49 48 50 50 49 50 52 48 44
6 5 3 3 2 3 2 4 2 6 9 11 10 13 14 14 15 16 22 23 25 26 27 28 25 14 22 31 35 38 35 37 36 38 41 36 32 34 40 48 47 47 50 50 49 48 51 50 47
6 2 4 3 3 2 4 3 4 6 12 11 12 10 11 12 14 15 19 24 26 25 25 25 23 17 12 19 31 34 31 38 39 41 42 42 40 35 39 44 45 46 48 48 48 46 48 51 48
5 5 4 2 3 3 1 5 5 4 4 6 9 8 11 8 10 13 17 22 20 21 25 28 26 23 18 15 11 29 35 37 35 41 42 36 43 45 43 45 47 47 47 48 49 46 48 49 49
3 0 4 4 5 1 2 5 3 4 5 4 7 8 8 5 6 9 15 17 20 23 22 21 21 25 22 21 18 15 28 33 38 38 40 38 41 48 49 47 46 47 49 50 48 46 49 50 49
Wind_Direction
305 256 301 354 164 90 199 236 237 190 235 214 185 156 202 182 161 206 160 158 170 165 162 165 165 161 156 152 151 148 146 142 140 138 134 132 133 134 133 130 127 124 120 118 115 112 113 109 106
268 309 7 335 203 180 216 220 209 220 207 45 188 200 238 166 115 111 130 174 168 161 162 164 166 162 157 155 153 152 146 147 144 140 136 136 135 135 135 132 128 128 126 122 119 119 114 111 108
227 237 143 208 210 220 194 198 224 236 235 256 356 151 184 177 78 153 169 164 163 161 163 165 166 164 160 157 155 154 149 148 146 144 142 142 140 140 138 135 133 132 130 125 123 121 120 118 113
227 131 320 227 224 235 181 198 218 236 256 198 195 272 320 257 154 175 160 163 163 165 166 165 169 166 163 161 158 153 153 152 152 150 148 144 142 143 141 139 137 134 131 130 128 124 121 121 120
237 185 222 236 233 259 228 198 183 206 249 198 156 237 181 85 160 158 159 162 163 165 168 167 172 169 166 163 160 156 160 156 155 154 150 149 145 143 145 144 140 137 135 134 128 124 122 126 129
245 185 218 227 217 215 272 239 208 198 220 295 192 168 191 134 148 158 161 163 165 165 168 168 172 170 167 165 163 163 164 161 158 156 155 152 148 146 148 144 142 139 138 137 130 123 121 126 132
256 222 231 35 223 210 218 249 245 232 241 245 227 167 246 165 166 159 160 161 163 167 167 168 173 173 170 167 166 166 166 164 162 159 157 154 150 151 149 146 142 141 141 138 131 128 125 128 129
266 264 242 236 232 262 194 227 243 224 259 244 177 221 182 215 153 152 152 155 165 168 170 171 174 173 171 170 168 167 167 165 164 161 159 157 156 153 148 147 146 146 144 135 133 131 131 130 129
286 238 235 230 221 250 272 207 245 265 234 246 197 227 223 160 151 140 144 146 153 164 172 173 174 174 173 171 170 168 167 166 163 160 159 155 152 152 149 149 150 147 141 143 139 137 137 134 133
277 248 243 252 278 241 238 239 238 231 196 247 59 293 127 146 147 147 158 157 163 167 171 175 176 175 174 172 169 168 166 165 164 162 159 157 154 153 150 151 152 151 148 146 142 140 139 139 138
267 285 358 336 354 358 318 332 319 241 264 93 187 231 176 186 157 161 168 172 171 172 169 177 179 176 176 174 170 168 167 165 166 164 162 159 156 152 155 154 152 153 152 150 145 143 141 139 138
277 251 299 309 340 339 319 319 329 298 258 17 316 245 213 184 180 168 161 174 169 175 173 174 178 179 177 171 172 168 169 170 167 168 166 162 155 159 156 157 156 156 151 149 150 147 142 139 136
252 278 289 296 286 298 298 290 284 282 289 337 317 330 209 183 181 174 174 173 166 171 172 174 180 177 177 173 173 169 172 173 173 171 169 167 163 163 161 159 157 154 153 153 149 144 141 137 133
276 292 292 287 292 247 277 287 279 241 247 332 325 339 330 198 164 156 161 160 165 170 175 175 181 180 176 174 174 170 174 176 174 175 171 171 168 168 165 160 158 156 156 152 147 144 140 136 134
293 284 312 251 217 243 204 270 237 249 275 293 319 332 334 312 195 170 169 168 168 174 176 177 179 180 178 177 175 175 172 174 175 177 175 173 173 170 165 160 160 159 158 154 150 144 141 137 133
315 322 18 284 295 221 135 280 215 243 227 257 254 326 333 337 272 187 179 176 172 169 175 175 178 188 180 181 179 176 177 175 177 180 178 177 174 174 168 165 164 163 163 160 156 151 144 137 133
360 238 281 300 338 272 186 259 224 181 206 260 178 259 306 327 329 248 189 194 186 190 181 178 181 184 183 181 182 176 182 175 180 183 184 179 177 179 174 173 168 168 167 166 163 155 153 139 127
260 345 288 246 302 339 307 246 300 257 181 287 130 119 341 333 308 281 212 198 196 197 198 189 187 185 181 180 176 175 180 178 185 186 187 182 183 183 178 174 172 174 172 169 165 157 147 139 132
239 272 317 268 304 344 4 260 260 276 92 268 288 46 35 7 343 6 250 205 203 200 199 187 182 186 178 176 169 171 178 179 182 191 190 185 185 186 184 177 176 178 177 173 167 157 149 139 137
225 89 278 277 218 74 326 283 305 242 69 45 20 16 18 7 359 0 351 357 205 199 201 189 189 187 184 186 183 177 180 181 186 189 190 190 190 192 191 186 182 181 177 172 168 162 149 149 143
6 150 296 262 293 165 262 302 110 43 63 41 22 14 12 3 354 350 351 349 356 234 203 197 190 192 194 195 187 179 173 168 170 181 187 193 194 194 194 189 188 187 184 179 176 174 163 162 164
7 356 321 311 7 290 82 147 36 354 51 33 15 2 3 357 347 354 348 342 349 335 248 206 202 197 197 200 185 173 172 172 185 183 185 188 196 197 197 194 191 196 190 189 184 182 176 172 169
235 318 297 295 278 205 313 83 358 25 359 3 357 1 360 352 349 355 343 337 342 351 325 223 205 201 202 202 193 181 184 184 182 180 183 186 193 200 202 201 203 198 198 196 191 187 184 181 178
328 14 345 271 309 22 346 96 354 26 346 340 349 351 3 344 358 354 343 339 347 356 357 307 225 208 207 206 200 192 187 181 179 180 180 184 192 197 204 204 206 200 200 201 198 194 191 190 190
359 31 11 17 12 34 360 58 29 332 345 342 338 345 349 356 353 353 350 345 348 353 351 348 305 215 199 206 205 198 195 186 185 187 186 184 185 191 201 206 204 204 203 205 203 199 197 197 197
307 111 133 147 26 345 13 88 226 227 276 331 344 347 352 356 355 1 350 342 347 349 346 348 350 240 207 209 205 206 201 193 191 191 196 193 192 196 200 205 207 206 205 207 205 203 202 203 203
314 34 200 75 271 40 13 343 275 351 348 355 359 352 348 352 355 358 347 343 348 347 343 343 349 8 223 215 212 218 210 199 195 197 196 200 200 197 197 203 205 206 207 208 207 205 206 207 207
106 230 35 358 50 26 301 240 215 328 338 335 347 349 332 345 354 353 347 340 349 344 339 346 350 360 350 235 216 214 212 203 203 201 200 202 202 200 199 201 204 206 208 209 210 209 210 210 212
351 17 359 117 87 143 334 278 207 219 230 285 307 322 340 338 346 344 340 339 338 339 344 354 344 3 356 333 320 224 217 212 205 203 207 205 200 200 202 203 204 207 209 211 212 212 214 213 213
131 186 127 96 311 105 149 275 245 233 278 275 290 323 326 305 316 334 324 334 341 343 342 347 344 1 354 342 327 312 225 213 210 211 209 207 205 204 205 206 205 207 212 215 215 214 217 214 212